FW5274 Weather Reports


Display with metric or nautical units.
time (UTC)temp
F
wind
direction
speed
MPH
gust
MPH
rain 1hr
in
rain 24hr
in
rain mn
in
humidity
%
barometer
mb
20260505061536 62 309 4.0 10.0 0.00 0.00 0.00 57 1013.5
20260505060036 62 317 4.0 11.0 0.00 0.00 0.00 57 1013.5
20260505054536 62 313 4.0 10.0 0.00 0.00 0.00 56 1013.4
20260505053032 63 320 2.0 9.0 0.00 0.00 0.00 53 1013.4
20260505051531 63 321 4.0 8.0 0.00 0.00 0.00 52 1013.2
20260505041642 66 298 10.0 18.0 0.00 0.00 0.00 45 1012.5
20260505040049 66 300 10.0 23.0 0.00 0.00 0.00 44 1012.3
20260505034528 66 302 9.0 18.0 0.00 0.00 0.00 43 1012.1
20260505033030 67 305 8.0 17.0 0.00 0.00 0.00 41 1012.0
20260505021535 73 314 8.0 15.0 0.00 0.00 0.00 32 1011.6
20260505014531 75 306 10.0 20.0 0.00 0.00 0.00 30 1011.4
20260505013030 76 306 10.0 20.0 0.00 0.00 0.00 29 1011.6
20260505011535 77 316 10.0 19.0 0.00 0.00 0.00 29 1011.6
20260505010035 78 300 11.0 20.0 0.00 0.00 0.00 29 1011.5
20260505004535 79 318 9.0 18.0 0.00 0.00 0.00 27 1011.6
20260505003036 79 327 9.0 19.0 0.00 0.00 0.00 25 1011.6
20260505001529 80 324 8.0 15.0 0.00 0.00 0.00 25 1011.7
20260504234528 82 317 8.0 17.0 0.00 0.00 0.00 27 1011.7
20260504231535 82 33 6.0 11.0 0.00 0.00 0.00 28 1011.9
20260504230037 82 351 5.0 10.0 0.00 0.00 0.00 26 1012.0
20260504224608 81 20 5.0 12.0 0.00 0.00 0.00 28 1012.2
20260504223150 81 10 6.0 12.0 0.00 0.00 0.00 28 1012.4
20260504221607 81 37 5.0 13.0 0.00 0.00 0.00 28 1012.5
20260504220036 80 18 7.0 13.0 0.00 0.00 0.00 29 1012.6
20260504214545 80 16 6.0 16.0 0.00 0.00 0.00 30 1012.8
20260504213032 80 32 6.0 13.0 0.00 0.00 0.00 31 1012.8
20260504211537 80 42 7.0 14.0 0.00 0.00 0.00 30 1013.0
20260504210037 80 33 6.0 17.0 0.00 0.00 0.00 29 1013.1
20260504204532 80 38 7.0 14.0 0.00 0.00 0.00 30 1013.2
20260504201535 80 41 6.0 16.0 0.00 0.00 0.00 29 1013.4
20260504200030 81 14 6.0 15.0 0.00 0.00 0.00 29 1013.5
20260504194643 80 28 6.0 12.0 0.00 0.00 0.00 30 1013.5
20260504193033 79 31 7.0 13.0 0.00 0.00 0.00 35 1013.6
20260504190107 79 42 7.0 14.0 0.00 0.00 0.00 37 1013.7
20260504184532 78 46 6.0 14.0 0.00 0.00 0.00 38 1013.8
20260504183036 78 41 6.0 14.0 0.00 0.00 0.00 39 1013.7
20260504181535 78 56 6.0 13.0 0.00 0.00 0.00 38 1013.7
20260504174542 77 47 4.0 8.0 0.00 0.00 0.00 39 1013.7
20260504173035 76 28 4.0 9.0 0.00 0.00 0.00 39 1013.6
20260504171535 75 21 2.0 7.0 0.00 0.00 0.00 39 1013.6
20260504170108 75 4 1.0 5.0 0.00 0.00 0.00 40 1013.6
20260504090107 61 238 5.0 9.0 0.00 0.00 0.00 45 1013.5
20260504081530 62 253 4.0 7.0 0.00 0.00 0.00 44 1013.8